| time (UTC) | temp C | wind direction | speed KPH | gust KPH | rain 1hr cm | rain 24hr cm | rain mn cm | humidity % | barometer mb |
| 20260509064835 | 2 | 65 | 0.0 | 0.0 | 0.00 | 0.08 | 0.00 | 85 | 1013.5 |
| 20260509063328 | 2 | 79 | 0.0 | 0.0 | 0.00 | 0.08 | 0.00 | 87 | 1013.9 |
| 20260509061832 | 2 | 79 | 0.0 | 0.0 | 0.00 | 0.08 | 0.00 | 87 | 1014.1 |
| 20260509060351 | 2 | 81 | 0.0 | 0.0 | 0.00 | 0.08 | 0.00 | 85 | 1014.3 |
| 20260509054814 | 2 | 77 | 0.0 | 0.0 | 0.00 | 0.08 | 0.00 | 83 | 1014.4 |
| 20260509053326 | 2 | 72 | 0.0 | 0.0 | 0.00 | 0.08 | 0.00 | 86 | 1014.5 |
| 20260509051812 | 3 | 70 | 0.0 | 0.0 | 0.00 | 0.08 | 0.00 | 85 | 1014.7 |
| 20260509050326 | 2 | 71 | 0.0 | 0.0 | 0.00 | 0.08 | 0.00 | 85 | 1014.9 |
| 20260509044833 | 3 | 71 | 0.0 | 0.0 | 0.00 | 0.08 | 0.00 | 85 | 1015.0 |
| 20260509043327 | 3 | 70 | 0.0 | 0.0 | 0.00 | 0.08 | 0.00 | 85 | 1015.0 |
| 20260509041821 | 3 | 70 | 0.0 | 0.0 | 0.00 | 0.08 | 0.00 | 83 | 1015.1 |
| 20260509040328 | 3 | 72 | 0.0 | 0.0 | 0.00 | 0.08 | 0.00 | 83 | 1015.3 |
| 20260509034819 | 3 | 72 | 0.0 | 0.0 | 0.00 | 0.08 | 0.08 | 81 | 1015.2 |
| 20260509033356 | 3 | 72 | 0.0 | 0.0 | 0.00 | 0.08 | 0.08 | 82 | 1015.1 |
| 20260509031823 | 4 | 72 | 0.0 | 0.0 | 0.00 | 0.08 | 0.08 | 81 | 1015.2 |
| 20260509030312 | 3 | 105 | 0.0 | 0.0 | 0.00 | 0.08 | 0.08 | 80 | 1015.3 |
| 20260509024824 | 4 | 87 | 0.0 | 0.0 | 0.00 | 0.08 | 0.08 | 74 | 1015.2 |
| 20260509023339 | 4 | 91 | 0.0 | 0.0 | 0.00 | 0.08 | 0.08 | 81 | 1015.3 |
| 20260509021830 | 5 | 71 | 0.0 | 0.0 | 0.00 | 0.08 | 0.08 | 77 | 1015.2 |
| 20260509020318 | 5 | 71 | 0.0 | 0.0 | 0.00 | 0.08 | 0.08 | 80 | 1015.3 |
| 20260509014833 | 5 | 71 | 0.0 | 1.6 | 0.00 | 0.08 | 0.08 | 73 | 1015.3 |
| 20260509013350 | 6 | 71 | 3.2 | 3.2 | 0.00 | 0.08 | 0.08 | 75 | 1015.3 |
| 20260509011830 | 6 | 77 | 0.0 | 1.6 | 0.00 | 0.08 | 0.08 | 64 | 1015.1 |
| 20260509010323 | 7 | 46 | 3.2 | 3.2 | 0.00 | 0.08 | 0.08 | 63 | 1014.9 |
| 20260509004829 | 8 | 40 | 1.6 | 1.6 | 0.00 | 0.08 | 0.08 | 57 | 1014.7 |
| 20260509003322 | 10 | 25 | 0.0 | 1.6 | 0.00 | 0.08 | 0.08 | 53 | 1014.5 |
| 20260509001828 | 11 | 314 | 0.0 | 0.0 | 0.00 | 0.08 | 0.08 | 43 | 1014.4 |
| 20260509000321 | 12 | 314 | 0.0 | 3.2 | 0.00 | 0.08 | 0.08 | 41 | 1014.4 |
| 20260508234827 | 12 | 297 | 1.6 | 8.0 | 0.00 | 0.08 | 0.08 | 39 | 1014.3 |
| 20260508233325 | 12 | 277 | 3.2 | 11.3 | 0.00 | 0.08 | 0.08 | 37 | 1014.2 |
| 20260508231836 | 12 | 316 | 8.0 | 11.3 | 0.00 | 0.08 | 0.08 | 38 | 1014.1 |
| 20260508230345 | 13 | 287 | 8.0 | 14.5 | 0.00 | 0.08 | 0.08 | 36 | 1014.1 |
| 20260508224816 | 13 | 293 | 9.7 | 16.1 | 0.00 | 0.08 | 0.08 | 39 | 1014.0 |
| 20260508223326 | 13 | 315 | 1.6 | 8.0 | 0.00 | 0.08 | 0.08 | 44 | 1014.1 |
| 20260508221818 | 14 | 256 | 0.0 | 8.0 | 0.00 | 0.08 | 0.08 | 41 | 1014.0 |
| 20260508220333 | 13 | 273 | 6.4 | 11.3 | 0.00 | 0.08 | 0.08 | 41 | 1014.1 |
| 20260508214819 | 13 | 293 | 1.6 | 11.3 | 0.00 | 0.08 | 0.08 | 44 | 1014.1 |
| 20260508213353 | 13 | 310 | 9.7 | 14.5 | 0.00 | 0.08 | 0.08 | 46 | 1014.1 |
| 20260508211817 | 13 | 306 | 1.6 | 4.8 | 0.00 | 0.08 | 0.08 | 47 | 1014.2 |
| 20260508210314 | 13 | 315 | 4.8 | 14.5 | 0.00 | 0.08 | 0.08 | 48 | 1014.3 |
| 20260508204847 | 13 | 314 | 11.3 | 16.1 | 0.00 | 0.08 | 0.08 | 46 | 1014.4 |
| 20260508203315 | 13 | 292 | 9.7 | 16.1 | 0.00 | 0.08 | 0.08 | 47 | 1014.5 |
| 20260508201826 | 12 | 321 | 3.2 | 9.7 | 0.00 | 0.08 | 0.08 | 48 | 1014.7 |
| 20260508200313 | 13 | 326 | 4.8 | 9.7 | 0.00 | 0.08 | 0.08 | 47 | 1015.0 |
| 20260508194823 | 12 | 271 | 1.6 | 6.4 | 0.00 | 0.08 | 0.08 | 51 | 1015.2 |
| 20260508193336 | 11 | 302 | 3.2 | 12.9 | 0.00 | 0.08 | 0.08 | 54 | 1015.4 |
| 20260508191822 | 12 | 336 | 6.4 | 14.5 | 0.00 | 0.08 | 0.08 | 54 | 1015.7 |
| 20260508184831 | 11 | 311 | 6.4 | 8.0 | 0.00 | 0.08 | 0.08 | 60 | 1015.8 |
| 20260508183323 | 11 | 255 | 3.2 | 8.0 | 0.00 | 0.08 | 0.08 | 64 | 1015.9 |
| 20260508181855 | 11 | 278 | 4.8 | 12.9 | 0.00 | 0.08 | 0.08 | 60 | 1016.0 |
| 20260508180345 | 11 | 232 | 6.4 | 12.9 | 0.00 | 0.08 | 0.08 | 61 | 1016.1 |
| 20260508174815 | 11 | 287 | 6.4 | 14.5 | 0.00 | 0.08 | 0.08 | 59 | 1016.2 |
| 20260508173325 | 11 | 212 | 8.0 | 16.1 | 0.00 | 0.08 | 0.08 | 64 | 1016.4 |
| 20260508171837 | 10 | 264 | 9.7 | 14.5 | 0.00 | 0.08 | 0.08 | 67 | 1016.6 |
| 20260508170327 | 9 | 231 | 4.8 | 9.7 | 0.00 | 0.08 | 0.08 | 71 | 1016.7 |
| 20260508164814 | 9 | 243 | 4.8 | 14.5 | 0.00 | 0.08 | 0.08 | 76 | 1016.8 |
| 20260508163328 | 9 | 242 | 8.0 | 12.9 | 0.00 | 0.08 | 0.08 | 78 | 1016.8 |
| 20260508161819 | 8 | 204 | 6.4 | 11.3 | 0.00 | 0.08 | 0.08 | 76 | 1017.2 |
| 20260508160335 | 8 | 167 | 4.8 | 12.9 | 0.00 | 0.08 | 0.08 | 80 | 1017.3 |
| 20260508154825 | 7 | 207 | 4.8 | 9.7 | 0.00 | 0.08 | 0.08 | 80 | 1017.3 |
| 20260508153312 | 7 | 166 | 6.4 | 9.7 | 0.00 | 0.08 | 0.08 | 83 | 1017.3 |
| 20260508151824 | 6 | 246 | 6.4 | 11.3 | 0.00 | 0.08 | 0.08 | 83 | 1017.3 |
| 20260508150312 | 6 | 218 | 4.8 | 8.0 | 0.00 | 0.08 | 0.08 | 86 | 1017.3 |
| 20260508144822 | 5 | 226 | 3.2 | 6.4 | 0.00 | 0.08 | 0.08 | 86 | 1017.3 |
| 20260508143337 | 6 | 226 | 1.6 | 3.2 | 0.00 | 0.08 | 0.08 | 84 | 1017.3 |
| 20260508141822 | 5 | 263 | 0.0 | 4.8 | 0.03 | 0.08 | 0.08 | 85 | 1017.2 |
| 20260508140320 | 5 | 302 | 1.6 | 6.4 | 0.03 | 0.08 | 0.08 | 87 | 1017.0 |
| 20260508134827 | 5 | 215 | 1.6 | 4.8 | 0.03 | 0.08 | 0.08 | 89 | 1016.7 |
| 20260508133319 | 5 | 218 | 1.6 | 4.8 | 0.05 | 0.08 | 0.08 | 90 | 1017.1 |
| 20260508131826 | 4 | 322 | 3.2 | 6.4 | 0.05 | 0.05 | 0.05 | 90 | 1017.3 |
| 20260508130340 | 4 | 264 | 4.8 | 11.3 | 0.05 | 0.05 | 0.05 | 91 | 1017.3 |
| 20260508124828 | 4 | 270 | 1.6 | 4.8 | 0.05 | 0.05 | 0.05 | 90 | 1017.2 |
| 20260508123344 | 4 | 299 | 3.2 | 14.5 | 0.03 | 0.03 | 0.03 | 88 | 1017.2 |
| 20260508121855 | 5 | 322 | 9.7 | 19.3 | 0.00 | 0.00 | 0.00 | 87 | 1017.0 |
| 20260508120322 | 5 | 277 | 4.8 | 9.7 | 0.00 | 0.00 | 0.00 | 86 | 1016.5 |
| 20260508114832 | 5 | 278 | 3.2 | 8.0 | 0.00 | 0.00 | 0.00 | 86 | 1016.2 |
| 20260508113321 | 5 | 191 | 4.8 | 9.7 | 0.00 | 0.00 | 0.00 | 84 | 1016.0 |
| 20260508111836 | 5 | 245 | 4.8 | 8.0 | 0.00 | 0.00 | 0.00 | 83 | 1015.8 |
| 20260508110328 | 5 | 240 | 1.6 | 8.0 | 0.00 | 0.00 | 0.00 | 85 | 1015.5 |
| 20260508104811 | 5 | 177 | 1.6 | 9.7 | 0.00 | 0.00 | 0.00 | 87 | 1015.2 |
| 20260508103344 | 5 | 172 | 3.2 | 6.4 | 0.00 | 0.00 | 0.00 | 88 | 1015.5 |
| 20260508101834 | 5 | 210 | 0.0 | 4.8 | 0.00 | 0.00 | 0.00 | 88 | 1015.3 |
| 20260508100321 | 5 | 132 | 1.6 | 3.2 | 0.00 | 0.00 | 0.00 | 88 | 1015.3 |
| 20260508094834 | 5 | 236 | 1.6 | 4.8 | 0.00 | 0.00 | 0.00 | 88 | 1015.7 |
| 20260508093321 | 5 | 231 | 0.0 | 8.0 | 0.00 | 0.00 | 0.00 | 89 | 1015.8 |
| 20260508091831 | 5 | 250 | 3.2 | 8.0 | 0.00 | 0.00 | 0.00 | 90 | 1015.9 |
| 20260508090319 | 5 | 210 | 6.4 | 11.3 | 0.00 | 0.00 | 0.00 | 90 | 1015.9 |
| 20260508084812 | 5 | 224 | 3.2 | 8.0 | 0.00 | 0.00 | 0.00 | 91 | 1015.9 |
| 20260508083321 | 4 | 221 | 1.6 | 4.8 | 0.00 | 0.00 | 0.00 | 91 | 1015.8 |
| 20260508081813 | 4 | 203 | 0.0 | 0.0 | 0.00 | 0.00 | 0.00 | 90 | 1015.8 |
| 20260508080321 | 3 | 203 | 0.0 | 1.6 | 0.00 | 0.00 | 0.00 | 89 | 1015.6 |
| 20260508074815 | 3 | 203 | 0.0 | 3.2 | 0.00 | 0.00 | 0.00 | 90 | 1015.6 |
| 20260508073330 | 3 | 159 | 0.0 | 1.6 | 0.00 | 0.00 | 0.00 | 90 | 1015.7 |
| 20260508071816 | 3 | 146 | 0.0 | 0.0 | 0.00 | 0.00 | 0.00 | 90 | 1015.7 |
| 20260508070331 | 3 | 146 | 0.0 | 3.2 | 0.00 | 0.00 | 0.00 | 90 | 1015.8 |